CW6157 Weather Reports


time (UTC)temp
F
wind
direction
speed
knots
gust
knots
rain 1hr
in
rain 24hr
in
rain mn
in
humidity
%
barometer
mb
20260508100244 51 205 1.7 8.7 0.00 0.02 0.02 87 1007.0
20260508094736 51 196 3.5 10.4 0.00 0.02 0.02 89 1007.3
20260508093245 51 121 7.8 66.0 0.00 0.02 0.02 90 1007.1
20260508091733 50 65 33.0 57.4 0.00 0.02 0.02 91 1007.1
20260508090237 49 66 8.7 34.8 0.01 0.02 0.02 91 1006.9
20260508084746 49 68 1.7 4.3 0.01 0.02 0.02 91 1006.9
20260508083234 49 69 3.5 5.2 0.01 0.02 0.02 91 1006.6
20260508081739 48 62 1.7 5.2 0.01 0.02 0.02 91 1006.6
20260508080300 48 62 0.9 6.1 0.00 0.02 0.02 91 1006.3
20260508074733 48 62 2.6 4.3 0.01 0.02 0.02 90 1006.3
20260508073258 48 65 3.5 6.1 0.01 0.02 0.02 89 1006.2
20260508071738 48 64 3.5 5.2 0.01 0.02 0.02 88 1006.2
20260508070244 48 40 0.0 11.3 0.01 0.02 0.02 87 1005.3
20260508064739 48 93 3.5 6.1 0.00 0.01 0.01 86 1005.9
20260508063304 47 76 5.2 6.1 0.00 0.01 0.01 86 1005.8
20260508061736 47 69 2.6 6.1 0.00 0.01 0.01 87 1005.5
20260508060255 47 52 3.5 6.1 0.00 0.01 0.01 87 1005.5
20260508054800 47 69 2.6 7.0 0.00 0.01 0.01 87 1005.5
20260508053248 47 55 5.2 7.0 0.00 0.01 0.01 88 1005.3
20260508051739 47 93 4.3 9.6 0.00 0.01 0.01 88 1005.4
20260508050231 47 56 3.5 9.6 0.00 0.01 0.01 88 1005.3
20260508044739 48 65 6.1 9.6 0.00 0.01 0.01 87 1005.2
20260508043233 48 54 5.2 10.4 0.00 0.01 0.01 87 1005.0
20260508041738 48 82 7.0 9.6 0.00 0.01 0.01 87 1005.1
20260508040245 49 55 2.6 6.1 0.00 0.01 0.01 88 1004.9
20260508034737 49 51 6.1 7.0 0.00 0.01 0.01 87 1005.1
20260508033250 49 75 2.6 5.2 0.00 0.01 0.01 87 1005.2
20260508031736 49 59 5.2 6.1 0.00 0.01 0.01 87 1005.3
20260508030235 49 41 2.6 7.0 0.00 0.01 0.01 87 1005.1
20260508024740 49 64 4.3 7.0 0.00 0.01 0.01 87 1005.1
20260508023233 49 52 5.2 7.8 0.00 0.01 0.01 87 1006.0
20260508021737 50 54 5.2 7.0 0.00 0.01 0.01 87 1006.2
20260508020233 50 38 3.5 7.0 0.00 0.01 0.01 86 1006.4
20260508014740 50 31 5.2 6.1 0.00 0.01 0.01 84 1006.5
20260508013302 50 75 2.6 7.0 0.00 0.01 0.01 83 1006.5
20260508011745 51 58 3.5 6.1 0.01 0.01 0.01 83 1006.7
20260508010242 51 44 3.5 7.0 0.01 0.01 0.01 82 1006.8
20260508004746 52 61 3.5 7.0 0.01 0.01 0.01 81 1006.9
20260508003247 52 23 6.1 8.7 0.01 0.01 0.01 77 1007.0
20260508001740 53 292 0.0 3.5 0.00 0.00 0.00 75 1007.0
20260508000231 53 278 1.7 5.2 0.00 0.00 0.00 74 1007.2
20260507234756 53 215 2.6 6.1 0.00 0.00 0.00 73 1007.2
20260507233249 53 223 2.6 7.0 0.00 0.00 0.00 72 1007.3
20260507231732 53 141 2.6 7.0 0.00 0.00 0.00 72 1007.2
20260507230247 53 169 3.5 9.6 0.00 0.00 0.00 71 1006.9
20260507224734 53 155 4.3 10.4 0.00 0.00 0.00 70 1007.0
20260507223241 53 162 1.7 7.0 0.00 0.00 0.00 69 1007.0
20260507221739 52 144 1.7 4.3 0.00 0.00 0.00 70 1007.0
20260507220256 52 144 1.7 5.2 0.00 0.00 0.00 71 1007.4
20260507214738 52 141 1.7 5.2 0.00 0.00 0.00 71 1007.4
20260507213242 52 134 1.7 7.0 0.00 0.00 0.00 70 1007.2
20260507211746 53 155 3.5 9.6 0.00 0.00 0.00 68 1007.1
20260507210259 53 141 3.5 11.3 0.00 0.00 0.00 66 1006.9
20260507204743 55 138 3.5 10.4 0.00 0.00 0.00 62 1006.6
20260507203247 56 99 3.5 14.8 0.00 0.00 0.00 57 1006.1
20260507201738 58 106 2.6 6.1 0.00 0.00 0.00 52 1006.5
20260507200256 59 109 2.6 5.2 0.00 0.00 0.00 50 1005.6
20260507194744 60 161 0.9 2.6 0.00 0.00 0.00 45 1005.5
20260507193236 61 168 0.9 1.7 0.00 0.00 0.00 44 1006.1
20260507191744 61 169 0.9 3.5 0.00 0.00 0.00 42 1006.1
20260507190234 62 168 0.0 4.3 0.00 0.00 0.00 41 1005.2
20260507184743 62 281 0.9 2.6 0.00 0.00 0.00 39 1005.0
20260507183233 62 281 0.0 2.6 0.00 0.00 0.00 42 1004.9
20260507181743 61 281 0.0 1.7 0.00 0.00 0.00 44 1004.8
20260507180304 60 281 0.0 6.1 0.00 0.00 0.00 45 1005.0
20260507174737 60 287 3.5 9.6 0.00 0.00 0.00 44 1005.0
20260507173241 61 229 4.3 13.0 0.00 0.00 0.00 42 1005.1
20260507171732 61 257 6.1 17.4 0.00 0.00 0.00 42 1005.2
20260507170248 61 217 11.3 15.6 0.00 0.00 0.00 44 1005.4
20260507164738 62 219 10.4 16.5 0.00 0.00 0.00 46 1005.1
20260507163241 64 216 2.6 8.7 0.00 0.00 0.00 37 1005.0
20260507161752 64 213 7.0 11.3 0.00 0.00 0.00 32 1004.9
20260507160237 63 222 4.3 7.0 0.00 0.00 0.00 35 1004.8
20260507154739 61 241 4.3 10.4 0.00 0.00 0.00 41 1005.0
20260507153233 60 212 9.6 15.6 0.00 0.00 0.00 43 1005.1
20260507151741 61 209 11.3 18.2 0.00 0.00 0.00 45 1005.1
20260507150238 62 215 13.9 26.1 0.00 0.00 0.00 46 1004.9
20260507144745 66 213 7.0 13.9 0.00 0.00 0.00 34 1005.4
20260507143236 65 200 2.6 8.7 0.00 0.00 0.00 33 1004.6
20260507141743 64 155 3.5 10.4 0.00 0.00 0.00 33 1004.8
20260507140235 65 213 7.8 14.8 0.00 0.00 0.00 32 1005.0
20260507134745 65 220 4.3 8.7 0.00 0.00 0.00 31 1005.9
20260507133236 65 148 1.7 8.7 0.00 0.00 0.00 35 1006.1
20260507131744 66 128 3.5 9.6 0.00 0.00 0.00 33 1006.2
20260507130256 65 64 1.7 9.6 0.00 0.00 0.00 31 1005.6
20260507124748 64 69 2.6 6.1 0.00 0.00 0.00 37 1005.7
20260507123259 63 210 0.0 9.6 0.00 0.00 0.00 39 1006.0
20260507121742 64 127 1.7 7.8 0.00 0.00 0.00 37 1006.2
20260507120304 63 222 1.7 7.0 0.00 0.00 0.00 39 1006.3
20260507114733 61 48 0.0 5.2 0.00 0.00 0.00 44 1006.6
20260507113256 59 35 5.2 7.0 0.00 0.00 0.00 47 1006.7
20260507111739 59 52 5.2 7.0 0.00 0.00 0.00 48 1006.9
20260507110235 58 76 3.5 7.0 0.00 0.00 0.00 52 1007.1
20260507104801 58 66 1.7 10.4 0.00 0.00 0.00 55 1007.2
20260507103229 58 119 4.3 8.7 0.00 0.00 0.00 57 1007.2
20260507101742 57 106 3.5 7.8 0.00 0.00 0.00 60 1007.6